M I D A S
Marine Information and Data Acquisition System
Tripno 250 of the Zeeleeuw from 2002-04-25 07:43:40 to 2002-04-25 11:15:19
Back to CruiseResearch ActivitiesStationsMapUnderway DataData graphs

EquipmentUnitsComments
TimeDGPSUTC
LatitudeDGPSDM.mWGS84
LongitudeDGPSDM.mWGS84
SpeedMeteo Stationm/sRelative wind speed
DirectionMeteo StationdegRelative wind direction
TemperatureMeteo Stationdeg CelciusAir temperature
PressureMeteo StationPaAtmospheric pressure
HumidityMeteo Station%Relative humidity
Missing or incorrect values are displayed as -999
Metereological data collected by the RV Zeeleeuw from 2002-04-25 07:43:40 to 2002-04-25 11:15:19
Time Latitude Longitude Speed Direction Temperature Pressure Humidity
2002-04-25 07:44 51°13.692 2°55.862 6.5 69 10.7 102270 90
2002-04-25 07:45 51°13.697 2°55.782 7.9 125 10.6 102260 89
2002-04-25 07:46 51°13.69 2°55.722 5.4 42 10.7 102270 89
2002-04-25 07:47 51°13.737 2°55.722 6 277 10.7 102260 89
2002-04-25 07:48 51°13.795 2°55.654 4.3 259 10.7 102260 89
2002-04-25 07:49 51°13.859 2°55.602 4.6 272 10.7 102260 89
2002-04-25 07:50 51°13.915 2°55.576 2.6 329 10.7 102260 89
2002-04-25 07:51 51°13.975 2°55.545 2.8 300 10.8 102270 88
2002-04-25 07:52 51°14.022 2°55.516 5.9 270 10.8 102260 88
2002-04-25 07:53 51°14.087 2°55.466 4.5 271 10.8 102270 88
2002-04-25 07:54 51°14.153 2°55.413 8.2 276 10.7 102270 89
2002-04-25 07:55 51°14.213 2°55.348 9.5 277 10.7 102270 89
2002-04-25 07:56 51°14.269 2°55.272 9.7 270 10.7 102270 89
2002-04-25 07:57 51°14.324 2°55.167 10.8 267 10.6 102260 89
2002-04-25 07:58 51°14.397 2°55.029 10.6 269 10.6 102250 90
2002-04-25 07:59 51°14.514 2°54.858 12.3 264 10.6 102240 90
2002-04-25 08:00 51°14.65 2°54.68 12.6 278 10.6 102250 90
2002-04-25 08:01 51°14.813 2°54.665 6.6 300 10.6 102260 90
2002-04-25 08:02 51°14.985 2°54.719 8.6 303 10.6 102270 90
2002-04-25 08:03 51°15.156 2°54.783 6.6 301 10.6 102260 90
2002-04-25 08:04 51°15.324 2°54.858 7.7 292 10.7 102260 90
2002-04-25 08:05 51°15.484 2°54.973 1.4 312 10.6 102260 90
2002-04-25 08:06 51°15.617 2°55.157 1.1 317 10.6 102260 90
2002-04-25 08:07 51°15.748 2°55.341 1.9 340 10.7 102260 90
2002-04-25 08:08 51°15.88 2°55.523 1.9 343 10.7 102260 90
2002-04-25 08:09 51°16.001 2°55.724 2.7 309 10.6 102250 90
2002-04-25 08:10 51°16.131 2°55.913 1.7 320 10.6 102250 90
2002-04-25 08:11 51°16.271 2°56.137 1.2 320 10.6 102250 90
2002-04-25 08:12 51°16.381 2°56.438 1.2 314 10.7 102260 90
2002-04-25 08:13 51°16.454 2°56.717 3.5 29 10.8 102250 90
2002-04-25 08:14 51°16.49 2°56.856 5.8 18 10.7 102260 89
2002-04-25 08:15 51°16.526 2°56.914 5.8 352 10.7 102250 89
2002-04-25 08:16 51°16.586 2°56.968 1.9 333 10.7 102240 90
2002-04-25 08:17 51°16.713 2°57.182 2.9 302 10.7 102250 90
2002-04-25 08:18 51°16.866 2°57.421 3.5 305 10.7 102240 90
2002-04-25 08:19 51°16.984 2°57.714 2.9 325 10.8 102250 89
2002-04-25 08:20 51°17.117 2°57.994 3.6 307 10.9 102250 90
2002-04-25 08:21 51°17.22 2°58.303 1.5 324 10.9 102250 89
2002-04-25 08:22 51°17.315 2°58.621 1.5 341 10.9 102250 89
2002-04-25 08:23 51°17.41 2°58.94 1.3 327 10.9 102250 89
2002-04-25 08:24 51°17.503 2°59.255 1.5 317 10.9 102260 89
2002-04-25 08:25 51°17.596 2°59.571 2.2 310 10.9 102250 89
2002-04-25 08:26 51°17.702 2°59.879 0.8 347 10.9 102250 89
2002-04-25 08:27 51°17.793 3°0.202 1.2 3 10.9 102250 89
2002-04-25 08:28 51°17.878 3°0.528 0.8 291 11 102250 89
2002-04-25 08:29 51°17.958 3°0.858 0.8 337 10.9 102250 88
2002-04-25 08:30 51°18.034 3°1.189 1.2 346 10.9 102260 88
2002-04-25 08:31 51°18.111 3°1.453 3.2 353 10.9 102260 88
2002-04-25 08:32 51°18.164 3°1.585 5.6 16 10.9 102250 89
2002-04-25 08:33 51°18.186 3°1.675 6.9 32 10.8 102250 89
2002-04-25 08:34 51°18.197 3°1.749 7.4 36 10.8 102260 89
2002-04-25 08:35 51°18.199 3°1.781 8.7 41 10.7 102260 89
2002-04-25 08:36 51°18.201 3°1.815 6.9 40 10.7 102270 90
2002-04-25 08:37 51°18.206 3°1.853 7.8 31 10.7 102260 90
2002-04-25 08:38 51°18.213 3°1.893 7.8 24 10.6 102260 90
2002-04-25 08:39 51°18.223 3°1.933 7.5 9 10.6 102260 90
2002-04-25 08:40 51°18.234 3°1.971 8.3 4 10.7 102260 90
2002-04-25 08:41 51°18.248 3°2.005 6.7 2 10.6 102250 90
2002-04-25 08:42 51°18.265 3°2.036 0.9 327 10.7 102260 91
2002-04-25 08:43 51°18.288 3°2.067 2.5 339 10.7 102260 90
2002-04-25 08:44 51°18.319 3°2.109 4.3 349 10.7 102260 90
2002-04-25 08:45 51°18.35 3°2.167 6.5 12 10.7 102260 90
2002-04-25 08:46 51°18.371 3°2.226 6.5   10.7 102250 90
2002-04-25 08:47 51°18.392 3°2.276 5.6 350 10.7 102260 90
2002-04-25 08:48 51°18.411 3°2.315 2.1 335 10.7 102250 90
2002-04-25 08:49 51°18.428 3°2.346 2 331 10.7 102260 90
2002-04-25 08:50 51°18.45 3°2.371 7.5 293 10.7 102270 90
2002-04-25 08:51 51°18.537 3°2.389 10.4 294 10.8 102260 90
2002-04-25 08:52 51°18.701 3°2.508 4.6 333 10.8 102250 90
2002-04-25 08:53 51°18.875 3°2.662 7.6 293 10.8 102260 90
2002-04-25 08:54 51°19.045 3°2.851 7.3 296 10.9 102270 90
2002-04-25 08:55 51°19.214 3°3.073 8.4 292 10.9 102270 90
2002-04-25 08:56 51°19.389 3°3.274 7 294 10.9 102270 90
2002-04-25 08:57 51°19.556 3°3.475 5.5 314 10.9 102270 90
2002-04-25 08:58 51°19.651 3°3.563 5.1 321 10.9 102270 90
2002-04-25 08:59 51°19.702 3°3.605 4.3 318 10.9 102260 90
2002-04-25 09:00 51°19.711 3°3.636 4.5 314 10.9 102270 90
2002-04-25 09:01 51°19.718 3°3.667 4.1 319 10.9 102270 90
2002-04-25 09:02 51°19.724 3°3.7 6.2 307 10.9 102260 90
2002-04-25 09:03 51°19.728 3°3.734 7 306 10.9 102260 90
2002-04-25 09:04 51°19.734 3°3.768 5.7 314 10.9 102250 90
2002-04-25 09:05 51°19.738 3°3.803 6.9 303 11 102250 90
2002-04-25 09:06 51°19.742 3°3.84 7.2 294 11 102250 90
2002-04-25 09:07 51°19.747 3°3.877 6.6 302 11 102250 90
2002-04-25 09:08 51°19.752 3°3.914 4.6 304 11 102250 89
2002-04-25 09:09 51°19.759 3°3.951 4.5 323 11.1 102240 89
2002-04-25 09:10 51°19.768 3°3.989 3.9 330 11 102250 89
2002-04-25 09:11 51°19.778 3°4.028 4 321 11 102240 89
2002-04-25 09:12 51°19.788 3°4.068 6.6 310 11.1 102250 89
2002-04-25 09:13 51°19.852 3°4.092 10.7 278 11.1 102240 89
2002-04-25 09:14 51°20.005 3°4.053 11.5 270 11.1 102240 89
2002-04-25 09:15 51°20.173 3°4.034 11.4 278 11.1 102220 88
2002-04-25 09:16 51°20.335 3°4.002 11.6 261 11.1 102220 88
2002-04-25 09:17 51°20.484 3°3.898 12.8 252 11.1 102220 88
2002-04-25 09:18 51°20.557 3°3.792 8.9 239 11.1 102230 88
2002-04-25 09:19 51°20.591 3°3.778 7.7 275 11.2 102240 88
2002-04-25 09:20 51°20.62 3°3.797 7.7 276 11.2 102230 88
2002-04-25 09:21 51°20.648 3°3.825 8.3 290 11.2 102240 87
2002-04-25 09:22 51°20.685 3°3.854 7.8 285 11.2 102230 87
2002-04-25 09:23 51°20.74 3°3.895 6.8 301 11.2 102230 87
2002-04-25 09:24 51°20.789 3°3.981 2.3 348 11.2 102240 87
2002-04-25 09:25 51°20.817 3°4.081 4.2 356 11.1 102240 87
2002-04-25 09:26 51°20.829 3°4.172 5.9 28 11.1 102240 87
2002-04-25 09:27 51°20.83 3°4.255 5.1 133 11 102240 87
2002-04-25 09:28 51°20.823 3°4.326 5.6 78 11.2 102240 87
2002-04-25 09:29 51°20.811 3°4.389 5.7 107 11.1 102250 87
2002-04-25 09:30 51°20.796 3°4.445 5.3 118 11.1 102230 87
2002-04-25 09:31 51°20.78 3°4.488 6 141 11.1 102240 87
2002-04-25 09:32 51°20.76 3°4.518 6.7 168 11.1 102230 87
2002-04-25 09:33 51°20.742 3°4.527 7 194 11 102230 87
2002-04-25 09:34 51°20.729 3°4.485 7.9 198 10.9 102220 87
2002-04-25 09:35 51°20.706 3°4.438 7.8 196 10.8 102220 87
2002-04-25 09:36 51°20.691 3°4.392 7.1 197 10.8 102220 87
2002-04-25 09:37 51°20.666 3°4.352 7.5 186 10.8 102220 87
2002-04-25 09:38 51°20.642 3°4.312 8.5 206 10.8 102220 88
2002-04-25 09:39 51°20.638 3°4.265 8.2 212 10.7 102220 87
2002-04-25 09:40 51°20.633 3°4.219 7.4 200 10.8 102210 87
2002-04-25 09:41 51°20.612 3°4.181 7.4 196 10.8 102210 87
2002-04-25 09:42 51°20.592 3°4.142 8.1 195 10.7 102220 87
2002-04-25 09:43 51°20.574 3°4.1 7.8 198 10.7 102210 87
2002-04-25 09:44 51°20.555 3°4.058 7.2 197 10.7 102220 87
2002-04-25 09:45 51°20.541 3°4.013 8.6 209 10.7 102210 87
2002-04-25 09:46 51°20.547 3°3.966 8.4 226 10.7 102210 87
2002-04-25 09:47 51°20.572 3°3.943 8.5 238 10.8 102210 87
2002-04-25 09:48 51°20.608 3°3.96 8.3 265 10.9 102210 86
2002-04-25 09:49 51°20.665 3°3.993 7.8 276 10.9 102210 86
2002-04-25 09:50 51°20.726 3°4.052 8.2 299 11 102200 86
2002-04-25 09:51 51°20.771 3°4.119 7.3 294 11 102210 86
2002-04-25 09:52 51°20.806 3°4.187 6.3 305 11 102210 86
2002-04-25 09:53 51°20.835 3°4.255 6 303 11 102210 86
2002-04-25 09:54 51°20.861 3°4.322 7.6 298 11.1 102210 86
2002-04-25 09:55 51°20.905 3°4.448 4.4 18 11.1 102210 86
2002-04-25 09:56 51°20.84 3°4.587 6.8 164 11 102220 86
2002-04-25 09:57 51°20.73 3°4.542 10.5 192 10.9 102210 86
2002-04-25 09:58 51°20.606 3°4.371 10.2 198 10.8 102190 86
2002-04-25 09:59 51°20.473 3°4.18 11.1 197 10.7 102190 87
2002-04-25 10:00 51°20.335 3°3.99 12.4 200 10.7 102190 87
2002-04-25 10:01 51°20.202 3°3.784 12.3 196 10.6 102180 87
2002-04-25 10:02 51°20.061 3°3.583 10.6 198 10.6 102190 87
2002-04-25 10:03 51°19.925 3°3.375 10.1 197 10.6 102180 87
2002-04-25 10:04 51°19.8 3°3.153 10.3 202 10.6 102190 87
2002-04-25 10:05 51°19.679 3°2.941 10.4 201 10.6 102190 87
2002-04-25 10:06 51°19.558 3°2.714 10.4 199 10.6 102180 87
2002-04-25 10:07 51°19.416 3°2.524 9.4 193 10.6 102180 87
2002-04-25 10:08 51°19.255 3°2.367 9.5 198 10.6 102200 87
2002-04-25 10:09 51°19.107 3°2.192 9.4 205 10.6 102180 87
2002-04-25 10:10 51°18.951 3°2.015 8.9 194 10.6 102190 87
2002-04-25 10:11 51°18.796 3°1.841 9.1 194 10.6 102180 87
2002-04-25 10:12 51°18.641 3°1.667 8.6 190 10.6 102180 87
2002-04-25 10:13 51°18.488 3°1.491 8.2 188 10.7 102170 87
2002-04-25 10:14 51°18.344 3°1.295 10.4 200 10.7 102180 87
2002-04-25 10:15 51°18.201 3°1.095 10 194 10.6 102180 87
2002-04-25 10:16 51°18.06 3°0.892 8.7 193 10.7 102180 87
2002-04-25 10:17 51°17.933 3°0.669 10.1 205 10.7 102180 87
2002-04-25 10:18 51°17.808 3°0.447 9.8 201 10.7 102170 86
2002-04-25 10:19 51°17.686 3°0.223 10.1 205 10.7 102190 87
2002-04-25 10:20 51°17.579 2°59.985 11.1 203 10.7 102190 87
2002-04-25 10:21 51°17.467 2°59.742 11.1 203 10.7 102180 86
2002-04-25 10:22 51°17.356 2°59.503 9.9 206 10.7 102180 86
2002-04-25 10:23 51°17.245 2°59.268 9.9 205 10.7 102180 86
2002-04-25 10:24 51°17.133 2°59.023 10.3 204 10.8 102180 86
2002-04-25 10:25 51°17.027 2°58.779 10.2 209 10.8 102180 86
2002-04-25 10:26 51°16.92 2°58.521 10.1 213 10.8 102180 86
2002-04-25 10:27 51°16.819 2°58.274 9.9 207 10.8 102190 85
2002-04-25 10:28 51°16.714 2°58.016 9.9 209 10.8 102190 85
2002-04-25 10:29 51°16.61 2°57.76 9.5 210 10.9 102190 86
2002-04-25 10:30 51°16.506 2°57.504 9.6 208 10.9 102190 85
2002-04-25 10:31 51°16.403 2°57.247 10.9 208 10.9 102190 85
2002-04-25 10:32 51°16.301 2°56.991 10.8 209 10.9 102190 85
2002-04-25 10:33 51°16.2 2°56.734 11 206 10.8 102190 85
2002-04-25 10:34 51°16.098 2°56.476 10.2 210 10.9 102190 85
2002-04-25 10:35 51°15.989 2°56.224 11 210 10.9 102190 85
2002-04-25 10:36 51°15.872 2°55.982 10.4 207 10.9 102190 85
2002-04-25 10:37 51°15.751 2°55.747 11 205 10.8 102200 85
2002-04-25 10:38 51°15.632 2°55.509 9.8 202 10.8 102200 85
2002-04-25 10:39 51°15.508 2°55.274 9.2 210 10.8 102190 86
2002-04-25 10:40 51°15.351 2°55.171 4.7 184 10.8 102200 86
2002-04-25 10:41 51°15.177 2°55.113 6.8 188 10.7 102200 86
2002-04-25 10:42 51°15.008 2°55.062 6.7 192 10.8 102200 86
2002-04-25 10:43 51°14.832 2°55.025 4.7 183 10.7 102200 86
2002-04-25 10:44 51°14.655 2°54.992 5.6 185 10.7 102210 86
2002-04-25 10:45 51°14.48 2°54.977 6.1 171 10.8 102210 86
2002-04-25 10:46 51°14.334 2°55.137 2 144 10.8 102220 86
2002-04-25 10:47 51°14.246 2°55.299 3.3 120 10.9 102230 86
2002-04-25 10:48 51°14.164 2°55.382 4.6 133 11 102230 86
2002-04-25 10:49 51°14.089 2°55.44 3.8 125 11.1 102230 85
2002-04-25 10:50 51°14.024 2°55.49 3.1 102 11.2 102230 85
2002-04-25 10:51 51°13.953 2°55.54 1.5 181 11.3 102230 84
2002-04-25 10:52 51°13.883 2°55.595 2.5 82 11.5 102230 83
2002-04-25 10:53 51°13.819 2°55.645 2.2 80 11.7 102240 82
2002-04-25 10:54 51°13.77 2°55.698 1 50 11.7 102240 81
2002-04-25 10:55 51°13.735 2°55.751 2.7 31 11.8 102240 81
2002-04-25 10:56 51°13.708 2°55.8 3.1 34 11.8 102240 80
2002-04-25 10:57 51°13.695 2°55.85 3.1 7 11.8 102240 80
2002-04-25 10:58 51°13.689 2°55.891 3 40 11.7 102240 81
2002-04-25 10:59 51°13.686 2°55.903 3.9 58 11.8 102230 81
2002-04-25 11:00 51°13.687 2°55.906 4.9 27 12 102240 80
2002-04-25 11:01 51°13.687 2°55.906 4.5 39 12 102230 79
2002-04-25 11:02 51°13.687 2°55.907 3.4 321 12 102240 79
2002-04-25 11:03 51°13.688 2°55.906 5 132 12.2 102240 79
2002-04-25 11:04 51°13.689 2°55.906 2.4 37 12.1 102230 78
2002-04-25 11:05 51°13.689 2°55.906 5.8 39 12.1 102230 79
2002-04-25 11:06 51°13.689 2°55.905 4.2 48 12 102230 79
2002-04-25 11:07 51°13.689 2°55.904 3.6 39 12 102230 79
2002-04-25 11:08 51°13.689 2°55.904 6.3 32 12.1 102240 78
2002-04-25 11:09 51°13.689 2°55.905 5.2 124 12.1 102240 78
2002-04-25 11:10 51°13.689 2°55.905 5.7 129 12 102230 78
2002-04-25 11:11 51°13.689 2°55.905 4.5 41 12.1 102230 79
2002-04-25 11:12 51°13.689 2°55.905 4.1 30 12.1 102230 78
2002-04-25 11:13 51°13.689 2°55.905 4.7 67 12.1 102240 79
2002-04-25 11:14 51°13.689 2°55.906 5.7 44 12.1 102230 78